Regional Weather Roundup
Issued by NWS Portland, ME

Current Version | Previous Version | Text Only | Print | Product List | Glossary Off
Versions: 1 2 3 4 5 6 7 8 9 10 11 12 13 14 15 16 17 18 19 20 21 22 23 24 25 26 27 28 29 30 31 32 33 34 35 36 37 38 39 40 41 42 43 44 45 46 47 48 49 50
000 ASUS41 KGYX 161705 RWRGYX WEATHER ROUNDUP FOR MAINE AND NEW HAMPSHIRE NATIONAL WEATHER SERVICE GRAY ME 1200 PM EST SAT DEC 16 2017 MEZ002-005-006-010-012-015-018-020-021-024-026-027-029-161800- MAINE CITY SKY/WX TMP DP RH WIND PRES REMARKS PORTLAND MOSUNNY 27 16 63 W8G17 29.84F SANFORD SUNNY 31 17 56 W12G21 29.84F BAR HARBOR SUNNY 27 13 55 NW9 29.81F WISCASSET SUNNY 26 12 55 W5 29.84F ROCKLAND MOSUNNY 24 12 60 W8 29.82F FRYEBURG SUNNY 25 13 60 E3 29.80F LEWISTONAUBURN SUNNY 34 17 50 CALM 29.82F AUGUSTA CLOUDY 23 10 57 W5 29.81F WATERVILLE CLOUDY 26 12 55 SW7 29.76F BANGOR PTSUNNY 22 13 68 W9 29.80F GREENVILLE N/A 18 10 71 NW12 29.68S WCI 5 MILLINOCKET PTSUNNY 18 7 62 NW13 29.78F WCI 5 HOULTON SUNNY 14 3 61 W8 29.74F PRESQUE ISLE SUNNY 15 1 53 NW6 29.76F FRENCHVILLE SUNNY 8 -2 63 NW12 29.69F WCI -7 CARIBOU SUNNY 11 -1 58 NW7 29.73F $$ NHZ002-005-008-009-011-012-014-161800- NEW HAMPSHIRE CITY SKY/WX TMP DP RH WIND PRES REMARKS PORTSMOUTH MOSUNNY 31 15 52 W13G20 29.84F ROCHESTER MOSUNNY 30 16 56 VRB7 29.83F NASHUA SUNNY 32 14 47 W10G18 29.88F MANCHESTER MOSUNNY 32 14 47 W14G20 29.85F CONCORD PTSUNNY 31 16 54 W8 29.85F LACONIA CLOUDY 29 16 58 SW14 29.83F WCI 18 PLYMOUTH FAIR 25 14 61 CALM 29.83F BERLIN CLOUDY 18 11 74 CALM 29.76F WHITEFIELD CLOUDY 14 13 95 CALM 29.79S JAFFREY MOSUNNY 27 14 58 W12 29.84F WCI 17 KEENE CLOUDY 29 16 58 W12 29.88F WCI 19 LEBANON MOSUNNY 29 15 56 SW5 29.83F MT WASHINGTON SNOW 0 0 100 W39G47 N/A VSB 0 WCI -29 $$ VTZ005-007-008-161800- VERMONT CITY SKY/WX TMP DP RH WIND PRES REMARKS ST JOHNSBURY N/A 20 15 81 MISG 29.80F MONTPELIER CLOUDY 23 14 68 NW8G20 29.83S BURLINGTON PTSUNNY 27 16 63 S8 29.84F $$ MAZ007-012-024-CTZ003-RIZ002-NYZ038-NYZ072-161800- SOUTHERN NEW ENGLAND AND NY CITY SKY/WX TMP DP RH WIND PRES REMARKS BOSTON MOSUNNY 33 14 45 W17 29.90F WORCESTER CLOUDY 25 11 55 W18 29.87F WCI 11 NANTUCKET SUNNY 33 19 56 W25 29.93F PROVIDENCE PTSUNNY 31 19 61 W17 29.96F WCI 19 HARTFORD PTSUNNY 30 19 63 SW13 29.95F WCI 20 ALBANY CLOUDY 31 15 52 W8 29.93F NEW YORK CITY PTSUNNY 36 20 52 SW18G24 30.02F $$ ANZ081-ANZ082-ANZ150-NHZ014-MEZ023>029-161800- COASTAL MARINE OBSERVATIONS STATION/POSITION TIME TEMP WIND PRES WAVE AIR SEA DIR/SP/G HT/PER (UTC) (F) (DEG/KT/KT) (MB) (FT/S) MOUNT DESERT ROC 1700 26 290/ 13/ 18 1009.5F MATINICUS ROCK 1600 26 290/ 13/ 16 1009.8F ISLE OF SHOALS 1600 28 260/ 21/ 23 1011.0F JEFFREYS LEDGE 1636 48 N/A 4/ 4 GEORGES BANK BUO 1550 38 50 1009.3 13/ 8 $$ .............KEY.............. WCI - WIND CHILL TC - TEMPERATURE IN CELSIUS VSB - VISIBILITY IN MILES HX - HEAT INDEX FAIR- INDICATES FEW OR NO CLOUDS BELOW 12,000 FT, WITH NO SIGNIFICANT WEATHER AND/OR OBSTRUCTIONS TO VISIBILITY.

USA.gov is the U.S. government's official web portal to all federal, state and local government web resources and services.